Location: Trebic
(49.2170°N, 15.8830°E)
Time: 18:46:08
(UTC+02:00)

Transit 4A - Pass Details

Date: 01 September 2019
Orbit: 867 x 978 km, 66.8° (Epoch: 17 October)

Event Time Altitude Azimuth Distance (km) Brightness Sun altitude
Rises 19:42:23 0° 274° (W) 3,677 13.4 -1.2°
Reaches altitude 10° 19:45:42 10° 290° (WNW) 2,725 12.5 -1.7°
Maximum altitude 19:50:22 21° 337° (NNW) 2,040 10.3 -2.4°
Drops below altitude 10° 19:55:00 10° 25° (NNE) 2,694 10.2 -3.2°
Sets 19:58:15 0° 41° (NE) 3,622 10.7 -3.7°
